| time (UTC) | temp F | wind direction | speed MPH | gust MPH | rain 1hr in | rain 24hr in | rain mn in | humidity % | barometer mb |
| 20260904210040 | 89 | 185 | 5.0 | 11.0 | 0.00 | 0.00 | 0.00 | 71 | 1011.1 |
| 20260904204538 | 89 | 245 | 3.0 | 13.0 | 0.00 | 0.00 | 0.00 | 70 | 1011.4 |
| 20260904203039 | 89 | 188 | 4.0 | 10.0 | 0.00 | 0.00 | 0.00 | 67 | 1011.6 |
| 20260904201536 | 87 | 178 | 3.0 | 10.0 | 0.00 | 0.00 | 0.00 | 71 | 1011.8 |
| 20260904200052 | 86 | 181 | 4.0 | 10.0 | 0.00 | 0.00 | 0.00 | 72 | 1012.0 |
| 20260904194536 | 86 | 190 | 5.0 | 15.0 | 0.00 | 0.00 | 0.00 | 71 | 1011.9 |
| 20260904193041 | 85 | 196 | 7.0 | 19.0 | 0.00 | 0.00 | 0.00 | 73 | 1012.0 |
| 20260904191542 | 82 | 137 | 4.0 | 16.0 | 0.00 | 0.00 | 0.00 | 79 | 1012.3 |
| 20260904190035 | 81 | 158 | 7.0 | 16.0 | 0.00 | 0.00 | 0.00 | 80 | 1012.6 |
| 20260904184537 | 80 | 181 | 6.0 | 20.0 | 0.00 | 0.00 | 0.00 | 78 | 1013.2 |
| 20260904183053 | 80 | 175 | 7.0 | 19.0 | 0.00 | 0.00 | 0.00 | 82 | 1013.2 |
| 20260904181542 | 79 | 164 | 8.0 | 17.0 | 0.00 | 0.00 | 0.00 | 87 | 1013.3 |
| 20260904180037 | 76 | 153 | 9.0 | 16.0 | 0.00 | 0.00 | 0.00 | 91 | 1013.5 |
| 20260904174538 | 73 | 181 | 9.0 | 16.0 | 0.00 | 0.03 | 0.00 | 92 | 1013.2 |
| 20260904173039 | 72 | 181 | 8.0 | 17.0 | 0.00 | 0.03 | 0.00 | 91 | 1013.5 |
| 20260904171545 | 73 | 143 | 8.0 | 20.0 | 0.00 | 0.03 | 0.00 | 90 | 1014.3 |
| 20260904170041 | 73 | 201 | 4.0 | 17.0 | 0.00 | 0.03 | 0.00 | 88 | 1015.1 |
| 20260904164547 | 73 | 205 | 6.0 | 13.0 | 0.00 | 0.08 | 0.00 | 87 | 1016.0 |
| 20260904163037 | 74 | 70 | 3.0 | 10.0 | 0.00 | 0.08 | 0.00 | 89 | 1016.1 |
| 20260904161540 | 73 | 104 | 6.0 | 16.0 | 0.00 | 0.08 | 0.00 | 89 | 1015.8 |
| 20260904160040 | 73 | 40 | 4.0 | 13.0 | 0.00 | 0.08 | 0.00 | 89 | 1016.3 |
| 20260904154539 | 73 | 138 | 4.0 | 16.0 | 0.00 | 0.08 | 0.00 | 89 | 1016.1 |
| 20260904153057 | 73 | 91 | 4.0 | 12.0 | 0.00 | 0.08 | 0.00 | 88 | 1016.2 |
| 20260904151534 | 73 | 45 | 5.0 | 13.0 | 0.00 | 0.08 | 0.00 | 88 | 1016.8 |
| 20260904150045 | 73 | 19 | 9.0 | 17.0 | 0.00 | 0.08 | 0.00 | 88 | 1017.2 |
| 20260904144536 | 74 | 33 | 7.0 | 17.0 | 0.00 | 0.08 | 0.00 | 90 | 1016.6 |
| 20260904143037 | 74 | 13 | 5.0 | 12.0 | 0.00 | 0.08 | 0.00 | 89 | 1016.7 |
| 20260904141539 | 74 | 27 | 5.0 | 12.0 | 0.00 | 0.08 | 0.00 | 89 | 1015.5 |
| 20260904140040 | 74 | 86 | 4.0 | 18.0 | 0.00 | 0.08 | 0.00 | 90 | 1015.2 |
| 20260904134539 | 73 | 57 | 7.0 | 14.0 | 0.00 | 0.08 | 0.00 | 92 | 1015.3 |
| 20260904133040 | 72 | 32 | 5.0 | 13.0 | 0.00 | 0.08 | 0.00 | 93 | 1015.2 |
| 20260904131546 | 72 | 5 | 4.0 | 11.0 | 0.00 | 0.08 | 0.00 | 93 | 1015.2 |
| 20260904130039 | 71 | 26 | 4.0 | 8.0 | 0.00 | 0.08 | 0.00 | 93 | 1015.1 |
| 20260904124539 | 71 | 53 | 3.0 | 9.0 | 0.00 | 0.08 | 0.00 | 93 | 1014.7 |
| 20260904123039 | 70 | 44 | 2.0 | 8.0 | 0.00 | 0.08 | 0.00 | 93 | 1014.6 |
| 20260904121539 | 70 | 35 | 1.0 | 5.0 | 0.00 | 0.08 | 0.00 | 93 | 1014.3 |
| 20260904120040 | 69 | 27 | 1.0 | 3.0 | 0.00 | 0.08 | 0.00 | 93 | 1013.6 |
| 20260904114537 | 69 | 5 | 1.0 | 4.0 | 0.00 | 0.08 | 0.00 | 93 | 1013.5 |
| 20260904113044 | 69 | 0 | 0.0 | 4.0 | 0.00 | 0.08 | 0.00 | 93 | 1013.2 |
| 20260904111540 | 69 | 360 | 4.0 | 12.0 | 0.00 | 0.08 | 0.00 | 93 | 1013.1 |
| 20260904110037 | 69 | 28 | 6.0 | 19.0 | 0.00 | 0.08 | 0.00 | 93 | 1013.0 |
| 20260904104534 | 71 | 11 | 12.0 | 22.0 | 0.00 | 0.08 | 0.00 | 93 | 1013.2 |
| 20260904103044 | 72 | 44 | 6.0 | 15.0 | 0.00 | 0.08 | 0.00 | 94 | 1012.9 |
| 20260904101549 | 71 | 5 | 0.0 | 4.0 | 0.00 | 0.08 | 0.00 | 93 | 1012.4 |
| 20260904100037 | 72 | 0 | 0.0 | 0.0 | 0.00 | 0.08 | 0.00 | 93 | 1012.3 |
| 20260904094551 | 72 | 0 | 0.0 | 0.0 | 0.00 | 0.08 | 0.00 | 93 | 1012.2 |
| 20260904093037 | 72 | 0 | 0.0 | 0.0 | 0.00 | 0.08 | 0.00 | 93 | 1012.2 |
| 20260904091537 | 72 | 5 | 2.0 | 4.0 | 0.00 | 0.08 | 0.00 | 93 | 1012.2 |
| 20260904090037 | 72 | 340 | 0.0 | 3.0 | 0.00 | 0.08 | 0.00 | 93 | 1012.2 |
| 20260904084538 | 72 | 0 | 0.0 | 2.0 | 0.00 | 0.08 | 0.00 | 93 | 1011.9 |
| 20260904083047 | 72 | 0 | 0.0 | 2.0 | 0.00 | 0.08 | 0.00 | 93 | 1012.0 |
| 20260904081538 | 72 | 232 | 0.0 | 4.0 | 0.00 | 0.08 | 0.00 | 93 | 1012.0 |
| 20260904080038 | 72 | 33 | 0.0 | 2.0 | 0.00 | 0.08 | 0.00 | 93 | 1012.1 |
| 20260904074542 | 72 | 33 | 0.0 | 3.0 | 0.00 | 0.08 | 0.00 | 93 | 1012.7 |
| 20260904073044 | 72 | 33 | 0.0 | 4.0 | 0.00 | 0.08 | 0.00 | 93 | 1012.6 |
| 20260904071540 | 71 | 170 | 2.0 | 4.0 | 0.00 | 0.08 | 0.00 | 93 | 1012.4 |
| 20260904070041 | 71 | 0 | 0.0 | 1.0 | 0.00 | 0.08 | 0.00 | 92 | 1012.3 |
| 20260904064537 | 71 | 0 | 0.0 | 2.0 | 0.00 | 0.08 | 0.00 | 92 | 1012.3 |
| 20260904063036 | 72 | 0 | 0.0 | 0.0 | 0.00 | 0.08 | 0.00 | 93 | 1012.4 |
| 20260904061539 | 72 | 170 | 0.0 | 2.0 | 0.00 | 0.08 | 0.00 | 93 | 1012.7 |
| 20260904060057 | 72 | 0 | 0.0 | 1.0 | 0.00 | 0.08 | 0.00 | 92 | 1013.0 |
| 20260904054554 | 72 | 170 | 1.0 | 2.0 | 0.00 | 0.08 | 0.00 | 92 | 1013.2 |
| 20260904053044 | 72 | 170 | 0.0 | 2.0 | 0.00 | 0.08 | 0.00 | 92 | 1013.2 |
| 20260904051538 | 72 | 65 | 1.0 | 3.0 | 0.00 | 0.08 | 0.00 | 92 | 1013.2 |
| 20260904050040 | 72 | 0 | 0.0 | 2.0 | 0.00 | 0.08 | 0.00 | 92 | 1013.5 |
| 20260904044543 | 72 | 0 | 0.0 | 2.0 | 0.00 | 0.08 | 0.08 | 92 | 1013.5 |
| 20260904043042 | 73 | 0 | 0.0 | 3.0 | 0.00 | 0.08 | 0.08 | 92 | 1013.5 |
| 20260904041539 | 73 | 0 | 0.0 | 2.0 | 0.00 | 0.08 | 0.08 | 92 | 1013.4 |
| 20260904040041 | 73 | 0 | 0.0 | 3.0 | 0.00 | 0.08 | 0.08 | 92 | 1013.7 |
| 20260904034536 | 73 | 65 | 1.0 | 3.0 | 0.00 | 0.08 | 0.08 | 92 | 1013.9 |
| 20260904033037 | 73 | 88 | 1.0 | 6.0 | 0.00 | 0.08 | 0.08 | 92 | 1014.0 |
| 20260904031535 | 73 | 81 | 0.0 | 3.0 | 0.00 | 0.08 | 0.08 | 92 | 1014.2 |
| 20260904030037 | 73 | 81 | 2.0 | 4.0 | 0.00 | 0.08 | 0.08 | 91 | 1014.3 |
| 20260904024540 | 73 | 81 | 2.0 | 4.0 | 0.00 | 0.08 | 0.08 | 91 | 1014.2 |
| 20260904023038 | 73 | 0 | 1.0 | 3.0 | 0.00 | 0.08 | 0.08 | 91 | 1014.1 |
| 20260904021537 | 73 | 0 | 0.0 | 0.0 | 0.00 | 0.08 | 0.08 | 90 | 1013.9 |
| 20260904020037 | 73 | 142 | 1.0 | 3.0 | 0.00 | 0.08 | 0.08 | 90 | 1013.6 |
| 20260904014611 | 73 | 0 | 0.0 | 3.0 | 0.00 | 0.08 | 0.08 | 89 | 1013.7 |
| 20260904013045 | 74 | 142 | 1.0 | 4.0 | 0.00 | 0.08 | 0.08 | 89 | 1013.3 |
| 20260904011538 | 74 | 0 | 0.0 | 4.0 | 0.00 | 0.08 | 0.08 | 88 | 1013.2 |
| 20260904010039 | 74 | 0 | 1.0 | 4.0 | 0.00 | 0.08 | 0.08 | 88 | 1013.1 |
| 20260904004535 | 75 | 108 | 0.0 | 6.0 | 0.00 | 0.08 | 0.08 | 87 | 1012.9 |
| 20260904003038 | 75 | 136 | 1.0 | 7.0 | 0.00 | 0.08 | 0.08 | 87 | 1012.6 |
| 20260904001534 | 76 | 0 | 1.0 | 7.0 | 0.00 | 0.08 | 0.08 | 85 | 1012.6 |
| 20260904000039 | 76 | 184 | 2.0 | 11.0 | 0.00 | 0.08 | 0.08 | 84 | 1012.4 |
| 20260903234542 | 77 | 0 | 3.0 | 7.0 | 0.00 | 0.08 | 0.08 | 82 | 1012.4 |
| 20260903233037 | 78 | 152 | 5.0 | 11.0 | 0.00 | 0.08 | 0.08 | 80 | 1012.5 |
| 20260903231537 | 78 | 177 | 5.0 | 11.0 | 0.00 | 0.08 | 0.08 | 78 | 1012.7 |
| 20260903230036 | 79 | 29 | 2.0 | 11.0 | 0.00 | 0.08 | 0.08 | 75 | 1012.8 |
| 20260903224534 | 81 | 140 | 4.0 | 11.0 | 0.00 | 0.08 | 0.08 | 72 | 1012.7 |
| 20260903223039 | 82 | 113 | 3.0 | 12.0 | 0.00 | 0.08 | 0.08 | 69 | 1012.9 |
| 20260903221537 | 84 | 180 | 3.0 | 13.0 | 0.00 | 0.08 | 0.08 | 66 | 1013.1 |
| 20260903220036 | 84 | 63 | 4.0 | 10.0 | 0.00 | 0.08 | 0.08 | 69 | 1012.9 |
| 20260903214542 | 84 | 159 | 5.0 | 10.0 | 0.00 | 0.08 | 0.08 | 71 | 1012.4 |
| 20260903213044 | 85 | 157 | 5.0 | 15.0 | 0.00 | 0.08 | 0.08 | 67 | 1012.4 |
| 20260903211600 | 85 | 156 | 5.0 | 14.0 | 0.00 | 0.08 | 0.08 | 67 | 1012.4 |